Weather History for PAIN - October, 2012

Change the Weather History Date:

Saturday, October 6, 2012

  Actual Average Record
Temperature  
Mean Temperature 40 °F -  
Max Temperature 44 °F 40 °F 61 °F (1969)
Min Temperature 35 °F 21 °F -2 °F (1970)
Degree Days  
Heating Degree Days 26    
Moisture  
Dew Point 37 °F    
Average Humidity 86    
Maximum Humidity 100    
Minimum Humidity 76    
Precipitation  
Precipitation 0.00 in - - ()
Sea Level Pressure  
Sea Level Pressure 30.12 in    
Wind  
Wind Speed 4 mph (NNW)    
Max Wind Speed 12 mph    
Max Gust Speed 18 mph    
Visibility 10 miles    
Events      
Averages and records for this station are not official NWS values.
T = Trace of Precipitation, MM = Missing Value Source: NWS Daily Summary

Daily Weather History Graph

Daily Weather History Graph

Search for Another Location

Airport or City:

Trip Planner

Search our weather history database for the weather conditions in past years. The results will help you decide how hot, cold, wet, or windy it might be!

Date:

Astronomy

Oct. 06, 2012 Rise Set
Actual Time 8:20 AM AKDT 7:05 PM AKDT
Civil Twilight 7:33 AM AKDT 7:52 PM AKDT
Nautical Twilight 6:38 AM AKDT 8:46 PM AKDT
Astronomical Twilight 5:41 AM AKDT 9:43 PM AKDT
Moon 9:47 PM AKDT (10/6) 4:07 PM AKDT (10/6)
Length of Visible Light 12h 18m
Length of Day
10h 44m
Waning Gibbous, 64% of the Moon is Illuminated
Oct 6
Waning Gibbous
Oct 7
Last Quarter
Oct 15
New
Oct 21
First Quarter
Oct 29
Full

Hourly Weather History & Observations

Time (AKDT) Temp. Windchill Dew Point Humidity Pressure Visibility Wind Dir Wind Speed Gust Speed Precip Events Conditions
12:16 AM 39.2 °F 33.6 °F 37.4 °F 93% 30.02 in 10.0 mi South 8.1 mph - N/A   Overcast
12:36 AM 41.0 °F 37.1 °F 37.4 °F 87% 30.02 in 10.0 mi SSW 5.8 mph - N/A   Overcast
12:56 AM 41.0 °F 38.0 °F 37.4 °F 87% 30.02 in 10.0 mi South 4.6 mph - N/A   Overcast
1:36 AM 41.0 °F 39.0 °F 37.4 °F 87% 30.01 in 10.0 mi SSW 3.5 mph - N/A   Overcast
1:56 AM 41.0 °F 38.0 °F 37.4 °F 87% 30.02 in 10.0 mi SSW 4.6 mph - N/A   Mostly Cloudy
2:16 AM 41.0 °F 39.0 °F 37.4 °F 87% 30.01 in 10.0 mi South 3.5 mph - N/A   Overcast
2:36 AM 41.0 °F 38.0 °F 37.4 °F 87% 30.01 in 10.0 mi SSW 4.6 mph - N/A   Overcast
2:56 AM 41.0 °F 38.0 °F 37.4 °F 87% 30.01 in 10.0 mi South 4.6 mph - N/A   Overcast
3:16 AM 41.0 °F 39.0 °F 37.4 °F 87% 30.01 in 10.0 mi SW 3.5 mph - N/A   Overcast
3:56 AM 41.0 °F - 37.4 °F 87% 30.01 in 10.0 mi Calm Calm - N/A   Overcast
4:16 AM 41.0 °F 38.0 °F 37.4 °F 87% 30.01 in 10.0 mi SW 4.6 mph - N/A   Overcast
4:36 AM 41.0 °F - 37.4 °F 87% 30.01 in 10.0 mi Calm Calm - N/A   Overcast
4:56 AM 42.8 °F - 37.4 °F 81% 30.01 in 10.0 mi Calm Calm - N/A   Overcast
5:16 AM 41.0 °F 39.0 °F 37.4 °F 87% 30.01 in 10.0 mi East 3.5 mph - N/A   Overcast
5:36 AM 41.0 °F - 37.4 °F 87% 30.01 in 10.0 mi Calm Calm - N/A   Overcast
5:56 AM 41.0 °F - 37.4 °F 87% 30.01 in 10.0 mi Calm Calm - N/A   Overcast
6:16 AM 39.2 °F - 37.4 °F 93% 30.02 in 10.0 mi Calm Calm - N/A   Overcast
6:36 AM 39.2 °F - 37.4 °F 93% 30.03 in 10.0 mi Calm Calm - N/A   Overcast
6:56 AM 39.2 °F - 37.4 °F 93% 30.03 in 10.0 mi Calm Calm - N/A   Overcast
7:16 AM 39.2 °F - 37.4 °F 93% 30.04 in 10.0 mi Calm Calm - N/A   Overcast
7:36 AM 39.2 °F 34.2 °F 39.2 °F 100% 30.05 in 10.0 mi NNE 6.9 mph - N/A   Overcast
7:56 AM 37.4 °F 29.8 °F 35.6 °F 93% 30.06 in 10.0 mi NNE 11.5 mph 18.4 mph N/A   Overcast
8:16 AM 35.6 °F 28.0 °F 35.6 °F 100% 30.07 in 10.0 mi North 10.4 mph 16.1 mph N/A   Overcast
8:36 AM 35.6 °F 28.0 °F 33.8 °F 93% 30.08 in 10.0 mi North 10.4 mph - N/A   Overcast
8:56 AM 35.6 °F 30.7 °F 35.6 °F 100% 30.09 in 10.0 mi North 5.8 mph - N/A   Overcast
9:16 AM 35.6 °F 30.7 °F 35.6 °F 100% 30.10 in 8.0 mi NNW 5.8 mph - N/A   Overcast
9:36 AM 35.6 °F 28.6 °F 35.6 °F 100% 30.10 in 10.0 mi North 9.2 mph - N/A   Overcast
9:56 AM 35.6 °F 30.7 °F 35.6 °F 100% 30.11 in 10.0 mi North 5.8 mph - N/A   Overcast
10:16 AM 35.6 °F 31.7 °F 33.8 °F 93% 30.11 in 10.0 mi NW 4.6 mph - N/A   Overcast
10:36 AM 35.6 °F 29.9 °F 33.8 °F 93% 30.13 in 10.0 mi North 6.9 mph - N/A   Overcast
10:56 AM 35.6 °F 28.6 °F 35.6 °F 100% 30.14 in 10.0 mi NNE 9.2 mph - N/A   Overcast
11:16 AM 35.6 °F 28.6 °F 35.6 °F 100% 30.14 in 10.0 mi North 9.2 mph - N/A   Overcast
11:36 AM 35.6 °F 29.9 °F 35.6 °F 100% 30.15 in 10.0 mi North 6.9 mph - N/A   Overcast
11:56 AM 37.4 °F 33.8 °F 37.4 °F 100% 30.16 in 10.0 mi North 4.6 mph - N/A   Overcast
12:16 PM 37.4 °F 34.9 °F 37.4 °F 100% 30.16 in 10.0 mi North 3.5 mph - N/A   Overcast
12:36 PM 37.4 °F 34.9 °F 37.4 °F 100% 30.17 in 10.0 mi NNE 3.5 mph - N/A   Overcast
12:56 PM 37.4 °F - 37.4 °F 100% 30.19 in 10.0 mi Calm Calm - N/A   Overcast
1:16 PM 39.2 °F 37.0 °F 37.4 °F 93% 30.19 in 10.0 mi North 3.5 mph - N/A   Overcast
1:36 PM 39.2 °F 35.9 °F 37.4 °F 93% 30.20 in 10.0 mi North 4.6 mph - N/A   Overcast
1:56 PM 41.0 °F 38.0 °F 37.4 °F 87% 30.20 in 10.0 mi North 4.6 mph - N/A   Overcast
2:16 PM 41.0 °F 37.1 °F 37.4 °F 87% 30.19 in 10.0 mi North 5.8 mph - N/A   Overcast
2:36 PM 41.0 °F 37.1 °F 37.4 °F 87% 30.19 in 10.0 mi North 5.8 mph - N/A   Overcast
2:56 PM 42.8 °F 38.6 °F 37.4 °F 81% 30.19 in 10.0 mi NNE 6.9 mph - N/A   Overcast
3:16 PM 42.8 °F 41.1 °F 37.4 °F 81% 30.19 in 10.0 mi NNE 3.5 mph - N/A   Overcast
3:36 PM 42.8 °F - 37.4 °F 81% 30.19 in 10.0 mi Calm Calm - N/A   Overcast
3:56 PM 42.8 °F - 37.4 °F 81% 30.19 in 10.0 mi Calm Calm - N/A   Mostly Cloudy
4:16 PM 44.6 °F 41.4 °F 37.4 °F 76% 30.19 in 10.0 mi SSE 5.8 mph - N/A   Mostly Cloudy
4:36 PM 44.6 °F - 37.4 °F 76% 30.19 in 10.0 mi Calm Calm - N/A   Overcast
4:56 PM 44.6 °F - 37.4 °F 76% 30.19 in 10.0 mi Calm Calm - N/A   Overcast
5:16 PM 44.6 °F - 37.4 °F 76% 30.19 in 10.0 mi Calm Calm - N/A   Overcast
5:36 PM 44.6 °F - 37.4 °F 76% 30.20 in 10.0 mi Calm Calm - N/A   Overcast
5:56 PM 44.6 °F 43.1 °F 37.4 °F 76% 30.19 in 10.0 mi South 3.5 mph - N/A   Overcast
6:16 PM 44.6 °F - 37.4 °F 76% 30.19 in 10.0 mi Calm Calm - N/A   Overcast
6:36 PM 44.6 °F - 37.4 °F 76% 30.19 in 10.0 mi Calm Calm - N/A   Overcast
6:56 PM 42.8 °F - 37.4 °F 81% 30.19 in 10.0 mi Calm Calm - N/A   Mostly Cloudy
7:16 PM 42.8 °F - 35.6 °F 76% 30.18 in 10.0 mi Calm Calm - N/A   Overcast
7:36 PM 42.8 °F - 35.6 °F 76% 30.17 in 10.0 mi Calm Calm - N/A   Overcast
7:56 PM 42.8 °F - 35.6 °F 76% 30.17 in 10.0 mi Calm Calm - N/A   Overcast
8:16 PM 42.8 °F 41.1 °F 35.6 °F 76% 30.17 in 10.0 mi South 3.5 mph - N/A   Overcast
8:36 PM 42.8 °F - 35.6 °F 76% 30.18 in 10.0 mi Calm Calm - N/A   Overcast
8:56 PM 42.8 °F 41.1 °F 35.6 °F 76% 30.17 in 10.0 mi South 3.5 mph - N/A   Mostly Cloudy
9:16 PM 42.8 °F 39.3 °F 35.6 °F 76% 30.18 in 10.0 mi SW 5.8 mph - N/A   Partly Cloudy
9:36 PM 42.8 °F 40.1 °F 35.6 °F 76% 30.19 in 10.0 mi SSW 4.6 mph - N/A   Partly Cloudy
9:56 PM 42.8 °F 39.3 °F 35.6 °F 76% 30.20 in 10.0 mi South 5.8 mph - N/A   Partly Cloudy
10:16 PM 42.8 °F 41.1 °F 35.6 °F 76% 30.22 in 10.0 mi South 3.5 mph - N/A   Scattered Clouds
10:36 PM 42.8 °F 41.1 °F 35.6 °F 76% 30.22 in 10.0 mi South 3.5 mph - N/A   Scattered Clouds
10:56 PM 42.8 °F - 35.6 °F 76% 30.22 in 10.0 mi Calm Calm - N/A   Clear
11:16 PM 42.8 °F - 35.6 °F 76% 30.22 in 10.0 mi Calm Calm - N/A   Clear
11:36 PM 41.0 °F - 35.6 °F 81% 30.23 in 10.0 mi Calm Calm - N/A   Clear
11:56 PM 41.0 °F - 35.6 °F 81% 30.24 in 10.0 mi Calm Calm - N/A   Clear